DW2537 Weather Reports


Display with metric or nautical units.
time (UTC)temp
F
wind
direction
speed
MPH
gust
MPH
rain 1hr
in
rain 24hr
in
rain mn
in
humidity
%
barometer
mb
20260505221539 80 348 2.0 19.0 0.00 0.00 0.00 32 1009.2
20260505221017 80 324 4.0 18.0 0.00 0.00 0.00 33 1009.2
20260505220518 81 165 2.0 10.0 0.00 0.00 0.00 32 1009.1
20260505220038 81 207 3.0 8.0 0.00 0.00 0.00 33 1009.1
20260505215517 81 23 3.0 8.0 0.00 0.00 0.00 34 1009.1
20260505215018 81 224 2.0 13.0 0.00 0.00 0.00 32 1009.2
20260505214538 81 194 3.0 13.0 0.00 0.00 0.00 30 1009.1
20260505214018 81 205 1.0 10.0 0.00 0.00 0.00 32 1009.2
20260505213518 81 159 2.0 10.0 0.00 0.00 0.00 34 1009.1
20260505213033 82 237 3.0 9.0 0.00 0.00 0.00 33 1009.1
20260505212518 82 257 2.0 8.0 0.00 0.00 0.00 31 1009.0
20260505212018 82 284 3.0 10.0 0.00 0.00 0.00 32 1008.9
20260505211534 83 168 2.0 10.0 0.00 0.00 0.00 32 1008.9
20260505211018 83 247 3.0 9.0 0.00 0.00 0.00 30 1008.9
20260505210517 83 238 3.0 7.0 0.00 0.00 0.00 32 1009.0
20260505210031 83 240 3.0 14.0 0.00 0.00 0.00 32 1008.9
20260505205520 84 352 4.0 14.0 0.00 0.00 0.00 32 1008.8
20260505205017 84 340 4.0 11.0 0.00 0.00 0.00 32 1008.8
20260505204530 84 298 3.0 12.0 0.00 0.00 0.00 29 1008.9
20260505204018 84 217 6.0 12.0 0.00 0.00 0.00 28 1008.8
20260505203518 84 55 3.0 9.0 0.00 0.00 0.00 28 1008.8
20260505203039 84 284 3.0 13.0 0.00 0.00 0.00 32 1008.9
20260505202521 84 174 6.0 13.0 0.00 0.00 0.00 31 1008.8
20260505202017 84 351 4.0 13.0 0.00 0.00 0.00 31 1008.9
20260505201547 85 5 4.0 12.0 0.00 0.00 0.00 32 1008.9
20260505201018 85 185 2.0 14.0 0.00 0.00 0.00 29 1008.8
20260505200517 84 266 3.0 14.0 0.00 0.00 0.00 32 1009.0
20260505200034 84 80 2.0 11.0 0.00 0.00 0.00 33 1009.0
20260505195517 84 101 2.0 21.0 0.00 0.00 0.00 33 1009.1
20260505195017 84 341 5.0 21.0 0.00 0.00 0.00 32 1009.2
20260505194535 84 221 3.0 9.0 0.00 0.00 0.00 32 1009.1
20260505194018 84 57 3.0 14.0 0.00 0.00 0.00 33 1009.0
20260505193518 84 184 5.0 14.0 0.00 0.00 0.00 33 1009.2
20260505193038 84 157 5.0 13.0 0.00 0.00 0.00 32 1009.2
20260505192520 85 263 4.0 12.0 0.00 0.00 0.00 30 1009.4
20260505192018 85 209 3.0 8.0 0.00 0.00 0.00 31 1009.2
20260505191538 84 106 2.0 9.0 0.00 0.00 0.00 32 1009.4
20260505191018 84 338 3.0 12.0 0.00 0.00 0.00 33 1009.5
20260505190522 84 227 6.0 12.0 0.00 0.00 0.00 30 1009.6
20260505190039 84 329 3.0 14.0 0.00 0.00 0.00 35 1009.6
20260505185519 84 203 6.0 14.0 0.00 0.00 0.00 33 1009.7
20260505185018 84 352 3.0 9.0 0.00 0.00 0.00 29 1009.7
20260505184533 84 150 1.0 12.0 0.00 0.00 0.00 36 1009.9
20260505184018 83 179 3.0 12.0 0.00 0.00 0.00 31 1010.0
20260505183517 84 184 3.0 9.0 0.00 0.00 0.00 34 1010.1
20260505183045 83 290 3.0 11.0 0.00 0.00 0.00 31 1010.2
20260505182517 83 284 4.0 11.0 0.00 0.00 0.00 32 1010.2
20260505182017 83 352 3.0 19.0 0.00 0.00 0.00 31 1010.4
20260505181534 83 17 4.0 19.0 0.00 0.00 0.00 35 1010.4
20260505181018 83 194 5.0 18.0 0.00 0.00 0.00 32 1010.6
20260505180517 83 328 4.0 12.0 0.00 0.00 0.00 36 1010.5
20260505180042 83 352 1.0 12.0 0.00 0.00 0.00 34 1010.5
20260505175518 83 149 2.0 12.0 0.00 0.00 0.00 32 1010.7
20260505175023 83 182 2.0 12.0 0.00 0.00 0.00 34 1010.8
20260505174533 83 177 3.0 13.0 0.00 0.00 0.00 34 1010.7
20260505174019 83 185 4.0 12.0 0.00 0.00 0.00 34 1010.7
20260505173517 83 264 3.0 13.0 0.00 0.00 0.00 34 1010.7
20260505173047 83 62 2.0 13.0 0.00 0.00 0.00 30 1010.7
20260505172517 82 235 2.0 10.0 0.00 0.00 0.00 33 1010.8
20260505172017 82 223 4.0 10.0 0.00 0.00 0.00 32 1010.9
20260505171545 82 331 2.0 8.0 0.00 0.00 0.00 38 1010.9
20260505171019 83 10 1.0 8.0 0.00 0.00 0.00 40 1011.0
20260505170518 82 206 2.0 8.0 0.00 0.00 0.00 37 1011.0
20260505170031 82 194 2.0 9.0 0.00 0.00 0.00 36 1011.0
20260505165521 81 41 3.0 9.0 0.00 0.00 0.00 38 1011.1
20260505165017 81 36 1.0 13.0 0.00 0.00 0.00 36 1011.1
20260505164532 80 150 3.0 13.0 0.00 0.00 0.00 38 1011.3
20260505164018 81 320 3.0 11.0 0.00 0.00 0.00 36 1011.4
20260505163517 81 136 3.0 8.0 0.00 0.00 0.00 38 1011.5
20260505163032 81 12 2.0 7.0 0.00 0.00 0.00 39 1011.6
20260505162518 81 213 2.0 13.0 0.00 0.00 0.00 36 1011.6
20260505162018 80 259 1.0 13.0 0.00 0.00 0.00 42 1011.8
20260505161532 80 19 3.0 13.0 0.00 0.00 0.00 39 1011.9
20260505161018 80 207 2.0 10.0 0.00 0.00 0.00 40 1011.8
20260505160521 80 9 3.0 10.0 0.00 0.00 0.00 42 1011.7
20260505153032 78 18 3.0 8.0 0.00 0.00 0.00 44 1012.0
20260505152517 78 81 2.0 7.0 0.00 0.00 0.00 44 1012.0
20260505152018 77 342 2.0 8.0 0.00 0.00 0.00 45 1012.0
20260505151537 77 102 2.0 10.0 0.00 0.00 0.00 46 1012.0
20260505151018 77 175 3.0 10.0 0.00 0.00 0.00 45 1012.1
20260505150518 76 246 2.0 7.0 0.00 0.00 0.00 43 1012.0
20260505140518 73 232 2.0 8.0 0.00 0.00 0.00 51 1012.1
20260505125017 68 91 2.0 8.0 0.00 0.00 0.00 56 1012.4
20260505124534 67 228 0.0 7.0 0.00 0.00 0.00 57 1012.4
20260505124019 67 323 2.0 7.0 0.00 0.00 0.00 53 1012.4
20260505123516 67 193 1.0 6.0 0.00 0.00 0.00 58 1012.3
20260505123034 66 205 1.0 5.0 0.00 0.00 0.00 58 1012.3
20260505122515 66 285 1.0 6.0 0.00 0.00 0.00 58 1012.4
20260505122017 65 286 2.0 6.0 0.00 0.00 0.00 56 1012.3
20260505121536 64 209 1.0 6.0 0.00 0.00 0.00 56 1012.2
20260505121017 64 187 1.0 6.0 0.00 0.00 0.00 60 1012.1
20260505120518 63 186 1.0 5.0 0.00 0.00 0.00 62 1012.1
20260505120056 63 176 1.0 5.0 0.00 0.00 0.00 61 1012.1
20260505115521 62 199 1.0 5.0 0.00 0.00 0.00 62 1012.1
20260505115016 62 180 1.0 4.0 0.00 0.00 0.00 63 1012.0
20260505114531 62 250 1.0 4.0 0.00 0.00 0.00 64 1012.0
20260505114017 61 202 1.0 2.0 0.00 0.00 0.00 60 1012.1
20260505113515 61 207 1.0 7.0 0.00 0.00 0.00 64 1012.1
20260505113043 60 265 2.0 6.0 0.00 0.00 0.00 64 1011.9
20260505112520 60 259 2.0 5.0 0.00 0.00 0.00 61 1012.0
20260505112016 60 119 0.0 2.0 0.00 0.00 0.00 66 1012.0
20260505111532 60 321 0.0 2.0 0.00 0.00 0.00 66 1011.9
20260505111016 59 227 0.0 2.0 0.00 0.00 0.00 63 1011.9
20260505110516 59 0 0.0 2.0 0.00 0.00 0.00 66 1011.8
20260505102019 57 306 0.0 2.0 0.00 0.00 0.00 68 1011.5
20260505101538 56 21 0.0 2.0 0.00 0.00 0.00 69 1011.5
20260505101016 56 109 0.0 2.0 0.00 0.00 0.00 68 1011.4
20260505100517 56 83 0.0 2.0 0.00 0.00 0.00 68 1011.3
20260505100034 57 164 0.0 2.0 0.00 0.00 0.00 68 1011.3
20260505095519 57 125 0.0 2.0 0.00 0.00 0.00 68 1011.3
20260505095024 57 171 0.0 2.0 0.00 0.00 0.00 68 1011.1
20260505094534 57 157 0.0 2.0 0.00 0.00 0.00 68 1011.1
20260505094018 57 157 0.0 2.0 0.00 0.00 0.00 67 1011.1
20260505093520 57 161 0.0 2.0 0.00 0.00 0.00 67 1011.1
20260505093042 57 179 0.0 2.0 0.00 0.00 0.00 67 1011.1
20260505092516 57 0 0.0 2.0 0.00 0.00 0.00 66 1011.1
20260505092017 57 0 0.0 2.0 0.00 0.00 0.00 67 1011.0
20260505091531 58 0 0.0 2.0 0.00 0.00 0.00 67 1011.1
20260505091017 57 0 0.0 2.0 0.00 0.00 0.00 67 1010.9
20260505090516 57 270 0.0 2.0 0.00 0.00 0.00 67 1011.0
20260505090045 57 279 0.0 5.0 0.00 0.00 0.00 67 1011.0
20260505085521 57 175 1.0 5.0 0.00 0.00 0.00 65 1011.1
20260505085016 56 247 0.0 2.0 0.00 0.00 0.00 69 1011.0
20260505084535 56 254 1.0 2.0 0.00 0.00 0.00 67 1011.0
20260505084020 56 265 0.0 2.0 0.00 0.00 0.00 70 1011.1
20260505083515 56 0 0.0 2.0 0.00 0.00 0.00 71 1011.0
20260505083033 56 0 0.0 2.0 0.00 0.00 0.00 71 1011.0
20260505082516 56 0 0.0 2.0 0.00 0.00 0.00 71 1011.0
20260505082017 56 0 0.0 2.0 0.00 0.00 0.00 71 1011.0
20260505081539 56 0 0.0 2.0 0.00 0.00 0.00 71 1011.1
20260505081017 56 67 0.0 2.0 0.00 0.00 0.00 71 1011.0
20260505080516 56 0 0.0 2.0 0.00 0.00 0.00 71 1011.0
20260505080037 56 71 0.0 2.0 0.00 0.00 0.00 72 1010.9
20260505075516 56 0 0.0 2.0 0.00 0.00 0.00 71 1011.0
20260505075016 56 63 0.0 2.0 0.00 0.00 0.00 71 1011.1
20260505074531 56 79 0.0 1.0 0.00 0.00 0.00 71 1011.0
20260505074016 56 0 0.0 2.0 0.00 0.00 0.00 71 1011.0
20260505073516 56 0 0.0 2.0 0.00 0.00 0.00 70 1011.0
20260505073057 56 70 0.0 0.0 0.00 0.00 0.00 70 1011.0
20260505072520 56 0 0.0 2.0 0.00 0.00 0.00 70 1011.0
20260505072016 56 0 0.0 2.0 0.00 0.00 0.00 70 1010.9
20260505071533 56 0 0.0 2.0 0.00 0.00 0.00 71 1010.9
20260505071016 56 0 0.0 2.0 0.00 0.00 0.00 71 1010.9
20260505070517 56 70 0.0 2.0 0.00 0.00 0.00 72 1010.9
20260505070033 56 142 0.0 2.0 0.00 0.00 0.00 70 1010.8
20260505065519 56 0 0.0 2.0 0.00 0.00 0.00 70 1010.8
20260505065016 56 153 0.0 2.0 0.00 0.00 0.00 70 1010.8
20260505064540 56 0 0.0 2.0 0.00 0.00 0.00 70 1010.8
20260505064016 56 0 0.0 1.0 0.00 0.00 0.00 71 1010.9
20260505063516 56 0 0.0 2.0 0.00 0.00 0.00 71 1010.9
20260505063039 56 0 0.0 2.0 0.00 0.00 0.00 71 1010.9
20260505062516 56 0 0.0 2.0 0.00 0.00 0.00 71 1010.8
20260505062020 56 153 0.0 2.0 0.00 0.00 0.00 71 1010.8
20260505061549 56 0 0.0 2.0 0.00 0.00 0.00 71 1010.8
20260505061016 56 0 0.0 2.0 0.00 0.00 0.00 70 1010.7
20260505060516 56 0 0.0 2.0 0.00 0.00 0.00 70 1010.8
20260505060035 57 0 0.0 2.0 0.00 0.00 0.00 70 1010.8
20260505055518 57 153 0.0 2.0 0.00 0.00 0.00 70 1010.9
20260505055015 57 0 0.0 2.0 0.00 0.00 0.00 69 1010.9
20260505054556 57 0 0.0 2.0 0.00 0.00 0.00 69 1010.9
20260505054018 57 153 0.0 2.0 0.00 0.00 0.00 69 1010.9
20260505053516 57 153 0.0 2.0 0.00 0.00 0.00 69 1010.9
20260505053035 57 0 0.0 2.0 0.00 0.00 0.00 70 1011.0
20260505052517 57 153 0.0 2.0 0.00 0.00 0.00 70 1011.0
20260505052016 57 153 0.0 2.0 0.00 0.00 0.00 70 1011.1
20260505051533 57 0 0.0 2.0 0.00 0.00 0.00 70 1011.1
20260505051019 57 109 0.0 2.0 0.00 0.00 0.00 69 1011.0
20260505050517 57 109 0.0 2.0 0.00 0.00 0.00 68 1011.0
20260505041538 58 0 0.0 2.0 0.00 0.00 0.00 67 1010.9
20260505041016 58 109 0.0 2.0 0.00 0.00 0.00 67 1010.9
20260505040517 58 0 0.0 0.0 0.00 0.00 0.00 66 1010.9
20260505040040 59 0 0.0 2.0 0.00 0.00 0.00 66 1010.8
20260505035516 59 0 0.0 2.0 0.00 0.00 0.00 65 1010.8
20260505035016 59 0 0.0 0.0 0.00 0.00 0.00 65 1010.8
20260505034538 59 0 0.0 0.0 0.00 0.00 0.00 63 1010.8
20260505034020 59 0 0.0 0.0 0.00 0.00 0.00 63 1010.8
20260505033516 59 0 0.0 0.0 0.00 0.00 0.00 63 1010.8
20260505033034 59 0 0.0 0.0 0.00 0.00 0.00 60 1010.7
20260505032516 60 0 0.0 0.0 0.00 0.00 0.00 62 1010.7
20260505032015 60 0 0.0 0.0 0.00 0.00 0.00 61 1010.7
20260505031543 60 0 0.0 0.0 0.00 0.00 0.00 61 1010.7
20260505031018 60 0 0.0 0.0 0.00 0.00 0.00 61 1010.7
20260505030518 60 0 0.0 0.0 0.00 0.00 0.00 62 1010.7
20260505030032 60 0 0.0 1.0 0.00 0.00 0.00 60 1010.7
20260505025522 60 0 0.0 2.0 0.00 0.00 0.00 61 1010.8
20260505025019 60 0 0.0 2.0 0.00 0.00 0.00 60 1010.7
20260505024538 60 0 0.0 2.0 0.00 0.00 0.00 60 1010.7
20260505024018 61 0 0.0 2.0 0.00 0.00 0.00 59 1010.7
20260505023518 61 0 0.0 2.0 0.00 0.00 0.00 59 1010.6
20260505023038 61 0 0.0 2.0 0.00 0.00 0.00 59 1010.6
20260505022518 61 0 0.0 2.0 0.00 0.00 0.00 58 1010.5
20260505022018 61 0 0.0 1.0 0.00 0.00 0.00 55 1010.5
20260505021533 62 111 0.0 1.0 0.00 0.00 0.00 58 1010.6
20260505021018 62 0 0.0 1.0 0.00 0.00 0.00 57 1010.7
20260505020518 62 0 0.0 0.0 0.00 0.00 0.00 57 1010.6
20260505020034 62 0 0.0 2.0 0.00 0.00 0.00 57 1010.6
20260505015519 62 0 0.0 2.0 0.00 0.00 0.00 57 1010.6
20260505015019 63 111 0.0 2.0 0.00 0.00 0.00 55 1010.5
20260505014539 62 87 1.0 2.0 0.00 0.00 0.00 57 1010.2
20260505014018 62 104 0.0 2.0 0.00 0.00 0.00 57 1010.2
20260505013518 62 160 0.0 2.0 0.00 0.00 0.00 57 1010.3
20260505013038 62 0 0.0 0.0 0.00 0.00 0.00 54 1010.4
20260505012518 63 0 0.0 0.0 0.00 0.00 0.00 58 1010.3
20260505012018 63 0 0.0 0.0 0.00 0.00 0.00 58 1010.2
20260505011538 63 0 0.0 2.0 0.00 0.00 0.00 57 1010.2
20260505011018 64 0 0.0 2.0 0.00 0.00 0.00 57 1010.1
20260505010518 64 173 0.0 2.0 0.00 0.00 0.00 56 1010.1
20260505010033 64 0 0.0 2.0 0.00 0.00 0.00 53 1010.1
20260505005519 65 0 0.0 2.0 0.00 0.00 0.00 54 1010.0
20260505005019 65 173 0.0 2.0 0.00 0.00 0.00 54 1009.9
20260505004547 65 0 0.0 2.0 0.00 0.00 0.00 54 1009.7
20260505004018 66 0 0.0 2.0 0.00 0.00 0.00 51 1009.7
20260505003518 66 169 0.0 2.0 0.00 0.00 0.00 53 1009.7
20260505003041 66 0 0.0 2.0 0.00 0.00 0.00 52 1009.8
20260505002518 66 109 0.0 1.0 0.00 0.00 0.00 52 1009.8
20260505002022 66 111 0.0 1.0 0.00 0.00 0.00 52 1009.8
20260505001539 66 111 0.0 2.0 0.00 0.00 0.00 52 1009.7
20260505001022 66 111 0.0 2.0 0.00 0.00 0.00 52 1009.7
20260505000518 67 111 0.0 2.0 0.00 0.00 0.00 52 1009.6
20260505000056 67 0 0.0 2.0 0.00 0.00 0.00 52 1009.7
20260504235519 67 0 0.0 2.0 0.00 0.00 0.00 50 1009.7
20260504235019 68 113 0.0 2.0 0.00 0.00 0.00 49 1009.6
20260504234533 68 113 0.0 2.0 0.00 0.00 0.00 49 1009.7
20260504234018 68 0 0.0 2.0 0.00 0.00 0.00 48 1009.6
20260504233520 69 0 0.0 2.0 0.00 0.00 0.00 48 1009.6
20260504233033 69 0 0.0 3.0 0.00 0.00 0.00 47 1009.6
20260504232519 69 0 0.0 3.0 0.00 0.00 0.00 46 1009.5
20260504232019 70 140 0.0 2.0 0.00 0.00 0.00 46 1009.5
20260504231532 70 57 0.0 4.0 0.00 0.00 0.00 46 1009.5
20260504231030 70 51 0.0 4.0 0.00 0.00 0.00 45 1009.5
20260504230518 70 248 0.0 4.0 0.00 0.00 0.00 44 1009.5
20260504230035 70 251 1.0 4.0 0.00 0.00 0.00 44 1009.6
20260504225518 70 136 0.0 3.0 0.00 0.00 0.00 44 1009.5
20260504225018 71 360 1.0 11.0 0.00 0.00 0.00 43 1009.5
20260504224529 71 84 2.0 11.0 0.00 0.00 0.00 39 1009.5
20260504224018 71 183 2.0 8.0 0.00 0.00 0.00 39 1009.5
20260504223518 72 55 1.0 6.0 0.00 0.00 0.00 43 1009.5
20260504223033 72 61 1.0 7.0 0.00 0.00 0.00 42 1009.5
20260504222517 72 97 2.0 7.0 0.00 0.00 0.00 38 1009.5
20260504222020 73 78 2.0 5.0 0.00 0.00 0.00 41 1009.5